Simultaneous Nadir Overpasses (SNOs) Predictions

Prediction of SNOs between NOAA-20 and METOP-C Satellite Orbit:

Table of predicted SNOs for the next 14.0 days since TLE Epoch: 3/1/2022
Index Date (NOAA-20) Time (NOAA-20) Lat,Lon (NOAA-20) SZA (NOAA-20 ) Date (METOP-C) Time (METOP-C) Lat,Lon (METOP-C) SZA (METOP-C ) Distance(km) Time Diff (sec)
1 03/14/2022 07:05:18 73.39, 64.09 76.17 03/14/2022 07:06:24 73.35, 66.85 75.97 87.89 66
2 03/14/2022 07:56:01 -73.32,-128.44 103.92 03/14/2022 07:57:08 -73.28,-125.98 104.11 78.72 67
3 03/14/2022 08:46:42 73.09, 39.39 75.81 03/14/2022 08:47:52 73.03, 40.81 75.65 46.65 70
4 03/14/2022 09:37:25 -73.02,-153.15 104.28 03/14/2022 09:38:36 -72.96,-152.02 104.43 37.75 71
5 03/14/2022 10:28:06 72.79, 14.65 75.45 03/14/2022 10:29:19 72.75, 14.89 75.38 8.92 73
6 03/14/2022 11:18:49 -72.72,-177.89 104.64 03/14/2022 11:20:02 -72.74,-177.82 104.65 2.66 73
7 03/14/2022 12:09:34 72.69, -10.51 75.31 03/14/2022 12:10:42 72.68, -10.60 75.29 2.98 68
8 03/14/2022 13:00:19 -72.73, 156.73 104.67 03/14/2022 13:01:24 -72.72, 156.80 104.70 2.46 65
9 03/14/2022 13:51:04 72.69, -35.89 75.29 03/14/2022 13:52:03 72.71, -35.87 75.29 2.18 59
10 03/14/2022 14:41:48 -72.68, 131.46 104.75 03/14/2022 14:42:46 -72.70, 131.42 104.74 2.52 58
11 03/14/2022 15:32:33 72.69, -61.27 75.26 03/14/2022 15:33:24 72.69, -61.25 75.24 0.56 51
12 03/14/2022 16:23:17 -72.68, 106.08 104.78 03/14/2022 16:24:07 -72.68, 106.03 104.79 1.56 50
13 03/14/2022 17:14:03 72.70, -86.65 75.23 03/14/2022 17:14:46 72.67, -86.64 75.20 2.74 43
14 03/14/2022 18:04:47 -72.68, 80.70 104.80 03/14/2022 18:05:29 -72.65, 80.65 104.84 3.18 42
15 03/14/2022 18:55:32 72.65,-111.92 75.15 03/14/2022 18:56:08 72.65,-112.02 75.15 3.27 36
16 03/14/2022 19:46:17 -72.68, 55.33 104.83 03/14/2022 19:46:50 -72.69, 55.38 104.84 1.74 33
17 03/14/2022 20:37:02 72.65,-137.30 75.13 03/14/2022 20:37:29 72.68,-137.29 75.15 3.76 27
18 03/14/2022 21:27:47 -72.68, 29.95 104.86 03/14/2022 21:28:12 -72.67, 29.99 104.88 2.45 25
19 03/14/2022 22:18:32 72.65,-162.67 75.10 03/14/2022 22:18:51 72.66,-162.67 75.11 1.35 19
20 03/14/2022 23:09:16 -72.63, 4.67 104.94 03/14/2022 23:09:34 -72.64, 4.61 104.93 2.41 18
21 03/15/2022 00:00:02 72.65, 171.95 75.07 03/15/2022 00:00:13 72.64, 171.94 75.06 1.08 11
22 03/15/2022 00:50:46 -72.63, -20.70 104.97 03/15/2022 00:50:56 -72.62, -20.77 104.97 2.42 10
23 03/15/2022 01:41:32 72.65, 146.57 75.05 03/15/2022 01:41:35 72.62, 146.56 75.01 3.49 3
24 03/15/2022 02:32:16 -72.64, -46.08 104.99 03/15/2022 02:32:17 -72.66, -46.05 104.97 2.42 1
25 03/15/2022 03:23:02 72.65, 121.19 75.02 03/15/2022 03:22:56 72.65, 121.29 75.01 3.10 6



Historial Predications of SNOs between NOAA-20 and METOP-C
